Meteo Giornale » Osservazioni meteo Mauritania » Nouadhibou
ore: 08:00 - Osservazioni Meteo Nouadhibou
Lat. 20° 56' N Lon. 17° 2' W Alt. 5 metri s.l.m.
21 °C
Nuvoloso
Temp. 24 Ore
21 °C
29 °C
Nord
31.5 Km/h
Dew point 20 °C
Umidità 94 %
Visibilità 6 Km
Il sole sorge alle ore 06:51
Il sole tramonta alle ore 19:24
| Data e Ora | Cielo e Fenomeni | T °C | DP °C | Um. % | Pres. hPa | Vis. km | Vento km/h | |
|---|---|---|---|---|---|---|---|---|
| Oggi h: 08:00 | Nuvoloso | 21 | 20 | 94 | 0 | 6 | N 31.5 | |
| Oggi h: 07:00 | Sereno | 21 | 19 | 88 | 1012 | 6 | N 20.3 | |
| Oggi h: 06:00 | Sereno | 22 | 19 | 83 | 1011 | 6 | N 29.6 | |
| Oggi h: 05:00 | Sereno | 22 | 19 | 83 | 1011 | 6 | N 29.6 | |
| Oggi h: 04:00 | Sereno | 22 | 19 | 83 | 1011 | 6 | N/NE 29.6 | |
| Oggi h: 03:00 | Sereno | 23 | 19 | 78 | 1011 | 6 | N/NE 29.6 | |
| Oggi h: 02:00 | Sereno | 22 | 19 | 83 | 1013 | 6 | N 25.9 | |
| Oggi h: 01:00 | Sereno | 22 | 19 | 83 | 1013 | 6 | N 25.9 | |
| Oggi h: 00:00 | Sereno | 22 | 19 | 83 | 1014 | 6 | N 27.8 | |
| Ieri h: 23:00 | Sereno | 22 | 19 | 83 | 1013 | 6 | N 29.6 | |
| Ieri h: 22:00 | Sereno | 23 | 19 | 78 | 1013 | 6 | N 27.8 | |
| Ieri h: 21:00 | Sereno | 23 | 19 | 78 | 1013 | 6 | N 29.6 | |
| Ieri h: 20:00 | Sereno | 23 | 19 | 78 | 1012 | 6 | N 38.8 | |
| Ieri h: 19:00 | Sereno | 24 | 19 | 73 | 1012 | 6 | N 38.8 | |
| Ieri h: 18:00 | Sereno | 26 | 19 | 65 | 1012 | 6 | N/NO 33.3 | |
| Ieri h: 17:00 | Sereno | 28 | 19 | 58 | 1012 | 6 | N 31.5 | |
| Ieri h: 16:00 | Sereno | 27 | 20 | 65 | 1012 | 6 | N/NO 37 | |
| Ieri h: 15:00 | Sereno | 27 | 20 | 65 | 1012 | 6 | NO 37 | |
| Ieri h: 14:00 | Sereno | 28 | 20 | 61 | 1013 | 6 | N/NO 25.9 | |
| Ieri h: 13:00 | Sereno | 28 | 20 | 61 | 1013 | 7 | N/NO 25.9 | |
| Ieri h: 12:00 | Sereno | 29 | 20 | 58 | 1014 | 7 | N/NO 22.2 | |
| Ieri h: 11:00 | Sereno | 29 | 19 | 54 | 1014 | 7 | N 13 | |
| Ieri h: 10:00 | Sereno | 28 | 19 | 58 | 1015 | 7 | N 11.1 | |
| Ieri h: 09:00 | Sereno | 24 | 20 | 78 | 1014 | 7 | N/NO 13 | |



